Location: Columbus
(35.2256°N, 82.1549°W)
Time: 00:18:04
(UTC-05:00)

Envisat - Pass Details

Date: 03 December 2021
Orbit: 764 x 766 km, 98.2° (Epoch: 25 January)

Event Time Altitude Azimuth Distance (km) Brightness Sun altitude
Rises 06:11:56 0° 0° (N) 3,237 6.1 -13.8°
Reaches altitude 10° 06:14:27 10° 351° (N) 2,306 5.2 -13.4°
Maximum altitude 06:18:53 31° 290° (WNW) 1,309 3.7 -12.5°
Drops below altitude 10° 06:23:18 10° 229° (SW) 2,293 5.2 -11.6°
Sets 06:25:49 0° 219° (SW) 3,215 6.0 -11.2°
